TimeEDT,TemperatureF,Dew PointF,Humidity,Sea Level PressureIn,VisibilityMPH,Wind Direction,Wind SpeedMPH,Gust SpeedMPH,PrecipitationIn,Events,Conditions,WindDirDegrees,DateUTC
12:52 AM,46.0,37.0,71,30.46,10.0,Calm,Calm,-,N/A,,Clear,0,2013-05-02 04:52:00
1:52 AM,44.1,36.0,73,30.45,10.0,Calm,Calm,-,N/A,,Clear,0,2013-05-02 05:52:00
2:52 AM,43.0,36.0,76,30.45,10.0,Calm,Calm,-,N/A,,Clear,0,2013-05-02 06:52:00
3:52 AM,44.1,35.1,71,30.44,10.0,SE,3.5,-,N/A,,Clear,130,2013-05-02 07:52:00
4:52 AM,41.0,34.0,76,30.45,10.0,Calm,Calm,-,N/A,,Clear,0,2013-05-02 08:52:00
5:52 AM,39.0,34.0,82,30.45,10.0,Calm,Calm,-,N/A,,Clear,0,2013-05-02 09:52:00
6:52 AM,42.1,37.0,82,30.46,10.0,Calm,Calm,-,N/A,,Clear,0,2013-05-02 10:52:00
7:52 AM,48.9,37.9,66,30.47,10.0,Calm,Calm,-,N/A,,Clear,0,2013-05-02 11:52:00
9:52 AM,62.1,39.0,43,30.45,10.0,Calm,Calm,-,N/A,,Clear,0,2013-05-02 13:52:00
10:52 AM,68.0,39.9,36,30.43,10.0,West,4.6,-,N/A,,Clear,260,2013-05-02 14:52:00
11:52 AM,73.9,36.0,25,30.40,10.0,Variable,3.5,-,N/A,,Clear,0,2013-05-02 15:52:00
12:52 PM,75.9,30.9,19,30.37,10.0,Variable,4.6,-,N/A,,Clear,0,2013-05-02 16:52:00
1:52 PM,77.0,32.0,19,30.35,10.0,WSW,5.8,-,N/A,,Clear,250,2013-05-02 17:52:00
2:52 PM,79.0,34.0,20,30.33,10.0,West,6.9,-,N/A,,Partly Cloudy,270,2013-05-02 18:52:00
3:52 PM,77.0,32.0,19,30.31,10.0,Calm,Calm,-,N/A,,Mostly Cloudy,0,2013-05-02 19:52:00
4:52 PM,78.1,35.1,21,30.29,10.0,West,6.9,-,N/A,,Overcast,280,2013-05-02 20:52:00
5:52 PM,75.0,36.0,24,30.29,10.0,SSW,3.5,-,N/A,,Overcast,210,2013-05-02 21:52:00
6:52 PM,71.1,43.0,36,30.28,10.0,Calm,Calm,-,N/A,,Overcast,0,2013-05-02 22:52:00
7:52 PM,70.0,36.0,29,30.32,10.0,East,12.7,21.9,N/A,,Mostly Cloudy,90,2013-05-02 23:52:00
8:52 PM,63.0,34.0,34,30.38,10.0,ESE,21.9,27.6,N/A,,Overcast,110,2013-05-03 00:52:00
9:52 PM,59.0,30.9,35,30.40,10.0,East,15.0,23.0,N/A,,Overcast,100,2013-05-03 01:52:00
10:52 PM,55.9,28.9,36,30.41,10.0,East,13.8,27.6,N/A,,Overcast,100,2013-05-03 02:52:00
11:52 PM,55.0,24.1,30,30.42,10.0,East,15.0,26.5,N/A,,Overcast,100,2013-05-03 03:52:00